Total_Precipitation_Accumulation
0.10 0.08 0.05 0.04 0.04 0.04 0.06 0.11 0.15 0.11 0.08 0.07 0.12 0.11 0.12 0.09 0.04 0.04 0.04 0.25 0.16 0.17 0.16 0.20 0.20 0.16 0.07 0.02 0.01 0.00 0.00 0.00 0.00 0.00 0.00 0.01 0.01 0.02 0.02 0.02 0.01 0.01 0.02
0.11 0.09 0.09 0.07 0.04 0.05 0.05 0.06 0.07 0.08 0.06 0.06 0.07 0.12 0.13 0.11 0.09 0.06 0.02 0.14 0.26 0.18 0.14 0.21 0.30 0.27 0.21 0.11 0.04 0.01 0.01 0.00 0.00 0.00 0.00 0.00 0.01 0.01 0.01 0.01 0.01 0.01 0.01
0.15 0.16 0.13 0.08 0.06 0.04 0.07 0.11 0.06 0.07 0.07 0.08 0.06 0.07 0.11 0.11 0.11 0.05 0.02 0.02 0.16 0.21 0.16 0.15 0.18 0.28 0.38 0.33 0.11 0.04 0.02 0.00 0.00 0.00 0.00 0.00 0.00 0.01 0.01 0.01 0.01 0.01 0.02
0.23 0.28 0.24 0.13 0.09 0.09 0.12 0.16 0.10 0.07 0.07 0.11 0.06 0.05 0.08 0.09 0.10 0.11 0.11 0.05 0.02 0.10 0.20 0.14 0.15 0.15 0.26 0.35 0.20 0.06 0.02 0.00 0.00 0.00 0.00 0.00 0.00 0.01 0.01 0.01 0.01 0.01 0.02
0.27 0.37 0.28 0.13 0.14 0.14 0.16 0.27 0.20 0.18 0.13 0.11 0.09 0.11 0.07 0.05 0.05 0.09 0.11 0.10 0.08 0.06 0.07 0.22 0.20 0.16 0.21 0.28 0.39 0.47 0.23 0.05 0.00 0.00 0.00 0.00 0.00 0.01 0.01 0.01 0.01 0.01 0.01
0.12 0.19 0.21 0.19 0.23 0.26 0.21 0.23 0.32 0.31 0.24 0.30 0.31 0.18 0.14 0.08 0.05 0.06 0.08 0.11 0.13 0.10 0.04 0.08 0.22 0.21 0.31 0.46 0.50 0.63 0.90 0.43 0.13 0.02 0.01 0.00 0.00 0.00 0.01 0.01 0.01 0.01 0.01
0.02 0.07 0.08 0.08 0.16 0.21 0.23 0.23 0.42 0.53 0.26 0.43 0.66 0.47 0.35 0.25 0.18 0.07 0.07 0.08 0.12 0.14 0.13 0.13 0.13 0.16 0.19 0.24 0.24 0.28 0.32 0.33 0.33 0.19 0.03 0.00 0.00 0.00 0.00 0.01 0.01 0.01 0.01
0.06 0.11 0.16 0.16 0.15 0.11 0.19 0.28 0.35 0.63 0.45 0.61 0.88 0.97 0.76 0.63 0.41 0.33 0.26 0.21 0.18 0.21 0.19 0.20 0.19 0.15 0.17 0.23 0.24 0.34 0.57 0.53 0.58 0.57 0.12 0.01 0.00 0.00 0.00 0.01 0.01 0.01 0.01
0.01 0.04 0.10 0.17 0.19 0.27 0.15 0.27 0.42 0.51 0.37 0.53 0.74 1.03 1.09 0.86 0.64 0.61 0.49 0.37 0.34 0.28 0.29 0.27 0.40 0.38 0.32 0.30 0.41 0.46 0.53 0.68 0.80 0.95 0.72 0.19 0.03 0.00 0.00 0.00 0.01 0.01 0.01
0.00 0.01 0.04 0.13 0.18 0.23 0.27 0.30 0.46 0.52 0.59 0.47 0.53 0.60 0.64 0.73 0.77 0.61 0.52 0.50 0.50 0.43 0.37 0.35 0.34 0.40 0.40 0.40 0.44 0.60 0.61 0.47 0.48 0.63 0.76 0.60 0.16 0.02 0.00 0.00 0.00 0.01 0.01
0.00 0.00 0.00 0.03 0.09 0.17 0.21 0.27 0.29 0.40 0.61 0.92 1.03 1.01 1.03 1.03 1.11 1.15 0.90 0.59 0.59 0.62 0.67 0.74 0.80 0.68 0.46 0.40 0.37 0.42 0.55 0.86 0.98 0.91 0.89 0.71 0.53 0.19 0.03 0.00 0.00 0.00 0.00
0.00 0.00 0.00 0.00 0.01 0.05 0.09 0.13 0.24 0.31 0.34 0.48 0.85 1.36 1.59 1.62 1.61 1.62 1.50 1.10 0.77 0.51 0.47 0.59 0.70 0.73 0.74 0.59 0.46 0.48 0.54 0.48 0.67 1.04 1.41 1.26 0.92 0.55 0.17 0.04 0.01 0.00 0.00
0.00 0.00 0.00 0.00 0.00 0.01 0.04 0.12 0.17 0.28 0.24 0.23 0.30 0.46 0.63 0.87 1.10 1.57 2.01 1.90 1.67 1.24 0.99 0.81 0.62 0.53 0.58 0.66 0.61 0.54 0.53 0.58 0.59 0.59 0.75 1.25 1.30 1.06 0.70 0.27 0.04 0.00 0.00
0.01 0.01 0.01 0.01 0.01 0.02 0.04 0.11 0.13 0.11 0.16 0.23 0.21 0.25 0.37 0.41 0.49 0.59 0.96 1.37 1.48 1.02 0.72 0.50 0.48 0.54 0.56 0.50 0.42 0.56 0.69 0.70 0.59 0.70 0.78 0.75 0.86 0.95 0.74 0.42 0.17 0.04 0.00
0.01 0.01 0.01 0.01 0.01 0.02 0.06 0.09 0.08 0.04 0.08 0.14 0.22 0.20 0.18 0.21 0.28 0.38 0.41 0.42 0.59 0.66 0.48 0.28 0.30 0.21 0.19 0.29 0.42 0.54 0.49 0.51 0.64 0.63 0.75 1.09 0.97 0.91 1.01 0.91 0.56 0.16 0.05
0.01 0.02 0.04 0.05 0.06 0.06 0.03 0.04 0.05 0.07 0.07 0.05 0.15 0.17 0.15 0.14 0.15 0.15 0.21 0.25 0.24 0.24 0.27 0.21 0.23 0.17 0.17 0.16 0.15 0.23 0.35 0.53 0.55 0.47 0.42 0.62 1.00 0.97 0.77 0.84 0.77 0.47 0.18
0.03 0.04 0.07 0.09 0.09 0.05 0.04 0.05 0.06 0.05 0.05 0.06 0.11 0.15 0.14 0.13 0.14 0.11 0.13 0.18 0.16 0.16 0.13 0.05 0.05 0.08 0.08 0.07 0.09 0.13 0.15 0.19 0.21 0.27 0.31 0.33 0.54 0.93 1.01 0.89 0.76 0.62 0.36
0.08 0.12 0.15 0.21 0.18 0.12 0.11 0.12 0.09 0.06 0.09 0.10 0.10 0.11 0.12 0.15 0.13 0.13 0.16 0.19 0.18 0.14 0.15 0.10 0.06 0.07 0.08 0.07 0.08 0.12 0.12 0.12 0.15 0.18 0.17 0.18 0.20 0.36 0.77 0.91 0.90 0.77 0.61
0.15 0.14 0.15 0.21 0.24 0.23 0.31 0.24 0.18 0.17 0.19 0.18 0.16 0.15 0.14 0.18 0.20 0.16 0.24 0.27 0.27 0.31 0.31 0.26 0.15 0.14 0.14 0.14 0.13 0.13 0.12 0.10 0.10 0.15 0.13 0.18 0.23 0.19 0.27 0.55 0.86 0.92 0.79
0.14 0.16 0.19 0.27 0.20 0.19 0.38 0.43 0.40 0.37 0.46 0.40 0.34 0.31 0.25 0.28 0.32 0.30 0.25 0.26 0.34 0.27 0.34 0.35 0.36 0.27 0.23 0.15 0.20 0.17 0.16 0.15 0.12 0.10 0.14 0.10 0.14 0.24 0.26 0.27 0.40 0.64 0.92
0.16 0.20 0.19 0.21 0.28 0.31 0.38 0.50 0.53 0.55 0.55 0.60 0.54 0.48 0.50 0.54 0.53 0.51 0.45 0.35 0.31 0.49 0.30 0.30 0.34 0.34 0.28 0.42 0.28 0.19 0.19 0.15 0.19 0.25 0.17 0.16 0.16 0.14 0.21 0.31 0.33 0.41 0.53
0.14 0.17 0.17 0.16 0.16 0.27 0.38 0.43 0.58 0.62 0.58 0.62 0.57 0.56 0.53 0.55 0.50 0.54 0.49 0.52 0.52 0.51 0.63 0.44 0.36 0.44 0.46 0.27 0.44 0.44 0.52 0.41 0.25 0.18 0.43 0.41 0.33 0.33 0.23 0.20 0.31 0.39 0.38
0.07 0.10 0.11 0.13 0.10 0.14 0.21 0.21 0.28 0.47 0.61 0.58 0.50 0.44 0.43 0.52 0.51 0.45 0.53 0.50 0.57 0.58 0.66 0.72 0.60 0.42 0.59 0.50 0.38 0.55 0.44 0.28 0.29 0.18 0.20 0.27 0.50 0.65 0.52 0.48 0.51 0.46 0.47
0.01 0.01 0.02 0.06 0.08 0.06 0.07 0.07 0.06 0.07 0.22 0.45 0.53 0.45 0.41 0.34 0.43 0.50 0.46 0.53 0.53 0.62 0.67 0.73 0.67 0.59 0.56 0.52 0.55 0.49 0.69 0.81 0.55 0.32 0.43 0.48 0.39 0.50 0.46 0.39 0.41 0.40 0.44
0.00 0.00 0.00 0.00 0.00 0.01 0.04 0.04 0.03 0.03 0.04 0.07 0.16 0.31 0.37 0.31 0.29 0.35 0.42 0.47 0.53 0.56 0.67 0.74 0.84 0.64 0.72 0.69 0.56 0.69 0.59 0.55 0.74 0.47 0.32 0.39 0.39 0.49 0.56 0.48 0.34 0.36 0.39
0.00 0.00 0.01 0.00 0.00 0.00 0.01 0.03 0.03 0.02 0.02 0.02 0.02 0.05 0.14 0.25 0.25 0.27 0.26 0.31 0.43 0.47 0.55 0.58 0.74 0.75 0.56 0.70 0.66 0.54 0.69 0.70 0.64 0.85 0.40 0.37 0.24 0.22 0.40 0.35 0.34 0.33 0.26